Regional Weather Roundup
Issued by NWS

Home | Current Version | Previous Version | Text Only | Print | Product List | Glossary Off
Versions: 1 2 3 4 5 6 7 8 9 10 11 12 13 14 15 16 17 18 19 20 21 22 23 24 25 26 27 28 29 30 31 32 33 34 35 36 37 38 39 40 41 42 43 44 45 46 47 48 49 50

227
ASUS43 KDTX 290901
RWRMI
MICHIGAN HOURLY REGIONAL WEATHER ROUNDUP
NATIONAL WEATHER SERVICE DETROIT/PONTIAC MI
500 AM EDT MON MAY 29 2017

NOTE: "FAIR" INDICATES FEW OR NO CLOUDS BELOW 12,000 FEET WITH NO
SIGNIFICANT WEATHER AND/OR OBSTRUCTION TO VISIBILITY.

MIZ047>049-052>055-059>063-066>070-074>076-081>083-291000-
SOUTHEAST LOWER MICHIGAN

CITY           SKY/WX    TMP DP  RH WIND       PRES   REMARKS
ADRIAN         CLEAR     55  53  93 W5        29.78R
ALMA           CLEAR     55  54  96 W12       29.72S
ANN ARBOR      CLEAR     54  54 100 SW7       29.75R
BAD AXE        CLEAR     56  55  97 SW5       29.69S
CARO           CLEAR     53  53  99 SW3       29.69F
DETROIT CITY   CLEAR     58  56  93 W8        29.73R
DETROIT        PTCLDY    58  56  93 SW7       29.75R
FLINT          CLEAR     55  52  89 SW3       29.72S
GROSSE ILE     CLEAR     58  56  91 W6        29.74R
HILLSDALE      CLEAR     55  52  88 W3        29.78R
HOWELL         CLEAR     55  51  87 W6        29.74R

CITY           SKY/WX    TMP DP  RH WIND       PRES   REMARKS
JACKSON        CLEAR     56  52  86 W7        29.77R
LAMBERTVILLE   CLEAR     58  55  89 SW6       29.77R
LANSING        CLEAR     57  51  80 W8        29.74S
LAPEER         FAIR      57  55  91 SW3       29.72R
MASON          CLEAR     57  53  85 SW3       29.75R
MONROE         MOCLDY    58  56  92 SW7       29.76R
MT. CLEMENS    CLEAR     58  58 100 W9        29.70S
PONTIAC        CLEAR     56  53  90 SW3       29.72R
PORT HOPE        N/A     56  55  97 CALM      29.66S
PORT HURON     CLEAR     57  55  94 CALM      29.70S FOG
TRI CITIES     PTCLDY    56  54  93 SW7       29.71S
MIDLAND        FAIR      54  52  92 CALM      29.70S
TROY           CLEAR     58  55  89 SW5       29.75R
SAGINAW HB     PTCLDY    55  50  82 SW7       29.70S
$$
MIZ043>046-050>051-056>058-064>065-071>073-077>080-291000-
SOUTHWEST LOWER MICHIGAN

CITY           SKY/WX    TMP DP  RH WIND       PRES   REMARKS
BATTLE CREEK   CLEAR     54  51  90 SW7       29.77R
BENTON HARBOR  PTCLDY    52  49  89 CALM      29.76S
BIG RAPIDS     CLEAR     49  48  95 S5        29.71S FOG
COLDWATER      CLEAR     56  55  97 SW5       29.78R
FREMONT        FAIR      49  49 100 CALM      29.72F FOG
HOLLAND        CLEAR     55  47  74 CALM      29.74F
GRAND RAPIDS   CLEAR     55  52  89 SW6       29.73F
IONIA          FAIR      55  51  87 SW6       29.73S
KALAMAZOO      CLEAR     56  50  80 SW7       29.77R
LUDINGTON      CLEAR     50  48  91 S3        29.70R
MARSHALL       CLEAR     54  53  97 SW3       29.77R
MOUNT PLEASANT   N/A     55  52  90 SW6       29.70F
MUSKEGON       CLEAR     57  48  72 W8        29.72F
SOUTH HAVEN    CLEAR     55  50  85 CALM      29.76R
$$
MIZ016>042-291000-
NORTHERN LOWER MICHIGAN

CITY           SKY/WX    TMP DP  RH WIND       PRES   REMARKS
ALPENA         CLEAR     53  53 100 SW5       29.65S
BEAVER ISLAND  FOG       47  47  99 SW6       29.63S VSB 1/2
BELLAIRE       FOG       48  47  95 CALM      29.66R VSB 1/2
CADILLAC       CLEAR     50  49  96 SW7       29.69S
CHARLEVOIX     CLEAR     54  54 100 S8        29.67R
FRANKFORT      PTCLDY    51  44  79 CALM      29.67S
GAYLORD        CLEAR     52  48  86 CALM      29.66R
GRAYLING       CLEAR     51  49  93 SW3       29.68S
HARBOR SPRINGS CLEAR     49  49 100 CALM      29.63S
HOUGHTON LAKE  CLEAR     56  51  84 SW7       29.69R
MANISTEE       CLEAR     46  45  96 E3        29.69R
OSCODA         CLEAR     54  53  96 SW5       29.66S
PELLSTON       CLEAR     49  47  93 NE3       29.64R
ROGERS CITY    FOG       54  53  98 S3        29.66R VSB 1/2
TRAVERSE CITY  CLEAR     54  48  80 SW7       29.65R
$$
MIZ007>008-015-291000-
EASTERN UPPER MICHIGAN

CITY           SKY/WX    TMP DP  RH WIND       PRES   REMARKS
KINROSS        CLOUDY    53  52  96 CALM      29.64R
MACKINAC ISLAN FOG       48  48 100 CALM      29.64R VSB 1/4
NEWBERRY       CLOUDY    52  51  97 SW6       29.62R FOG
S. S. MARIE    CLOUDY    54  53  97 CALM      29.62S
MUNISING         N/A     52  51  97 S5        29.59S
$$
MIZ004>006-011>014-085-291000-
CENTRAL UPPER MICHIGAN

CITY           SKY/WX    TMP DP  RH WIND       PRES   REMARKS
MANISTIQUE     FOG       49  46  90 CALM      29.61S VSB 1/4
ESCANABA       FOG       50  50 100 CALM      29.62S VSB 1/4
SAWYER-GWINN   MOCLDY    50  49  97 SW6       29.60S
$$
MIZ001>003-009>011-084-291000-
WESTERN UPPER MICHIGAN

CITY           SKY/WX    TMP DP  RH WIND       PRES   REMARKS
IRON MOUNTAIN  PTCLDY    47  44  90 W3        29.60F
HOUGHTON       CLOUDY    52  49  89 SW9       29.55F
COPPER HARBOR    N/A     50  48  93 CALM      29.56S
IRONWOOD       CLOUDY    51  48  89 W9        29.61S
$$

ABBREVIATIONS USED IN REMARKS
   TC - TEMPERATURE IN CELSIUS
  WCI - WIND CHILL INDEX
   HX - HEAT INDEX
  VSB - VISIBILITY





USA.gov is the U.S. government's official web portal to all federal, state and local government web resources and services.